contact:dominique.lefevre@mio.osupytheas.fr, maurice.libes@osupytheas.fr, didier.mallarino@osupytheas.fr
Project:EMSO http://www.emso-fr.org/EMSO-France
Depth: 2436.0 m
Title:EMSO Ligure Ouest : Data MII capteur CSTAR
DateTime,Latitude,Longitude,Instrument_Serial,Reference_Counts,Signal_Counts,Corrected_Signal_raw_counts,Calculated_Beam_c_inverse_meters,Internal_thermistor_counts
DateTime,Latitude,Longitude,Instrument_Serial,Reference_Counts,Signal_Counts,Corrected_Signal_raw_counts,Calculated_Beam_c_inverse_meters,Internal_thermistor_counts
2022-08-27T00:00:32,42.805,6.029,CST-1368DR,4598,5176,11984,01.059,551
2022-08-27T00:03:34,42.805,6.029,CST-1368DR,4598,5175,11984,01.059,551
2022-08-27T00:06:35,42.805,6.029,CST-1368DR,4598,5175,11982,01.060,551
2022-08-27T00:09:37,42.805,6.029,CST-1368DR,4598,5173,11977,01.061,551
2022-08-27T00:12:38,42.805,6.029,CST-1368DR,4598,5174,11980,01.060,551
2022-08-27T00:15:40,42.805,6.029,CST-1368DR,4598,5175,11982,01.060,550
2022-08-27T00:18:42,42.805,6.029,CST-1368DR,4598,5171,11973,01.063,551
2022-08-27T00:21:43,42.805,6.029,CST-1368DR,4598,5171,11974,01.062,551
2022-08-27T00:24:45,42.805,6.029,CST-1368DR,4598,5174,11981,01.060,551
2022-08-27T00:27:46,42.805,6.029,CST-1368DR,4598,5176,11985,01.059,551
2022-08-27T00:30:48,42.805,6.029,CST-1368DR,4598,5174,11980,01.060,551
2022-08-27T00:33:49,42.805,6.029,CST-1368DR,4598,5175,11982,01.060,551
2022-08-27T00:36:51,42.805,6.029,CST-1368DR,4598,5174,11981,01.060,551
2022-08-27T00:39:53,42.805,6.029,CST-1368DR,4598,5175,11984,01.059,551
2022-08-27T00:42:54,42.805,6.029,CST-1368DR,4598,5174,11981,01.060,551
2022-08-27T00:45:56,42.805,6.029,CST-1368DR,4598,5174,11980,01.060,551
2022-08-27T00:48:57,42.805,6.029,CST-1368DR,4598,5174,11981,01.060,551
2022-08-27T00:51:59,42.805,6.029,CST-1368DR,4598,5174,11981,01.060,551
2022-08-27T00:55:01,42.805,6.029,CST-1368DR,4598,5175,11982,01.060,551
2022-08-27T00:58:02,42.805,6.029,CST-1368DR,4598,5176,11984,01.059,551
2022-08-27T01:01:04,42.805,6.029,CST-1368DR,4598,5172,11977,01.061,551
2022-08-27T01:04:05,42.805,6.029,CST-1368DR,4598,5172,11975,01.062,551
2022-08-27T01:07:07,42.805,6.029,CST-1368DR,4598,5172,11977,01.061,551
2022-08-27T01:10:08,42.805,6.029,CST-1368DR,4598,5174,11981,01.060,551
2022-08-27T01:13:10,42.805,6.029,CST-1368DR,4598,5174,11980,01.060,550
2022-08-27T01:16:12,42.805,6.029,CST-1368DR,4598,5175,11982,01.060,551
2022-08-27T01:19:13,42.805,6.029,CST-1368DR,4598,5175,11982,01.060,551
2022-08-27T01:22:15,42.805,6.029,CST-1368DR,4598,5174,11981,01.060,551
2022-08-27T01:25:16,42.805,6.029,CST-1368DR,4598,5174,11980,01.060,551
2022-08-27T01:28:18,42.805,6.029,CST-1368DR,4598,5174,11980,01.060,551
2022-08-27T01:31:19,42.805,6.029,CST-1368DR,4598,5174,11981,01.060,551
2022-08-27T01:34:21,42.805,6.029,CST-1368DR,4598,5172,11976,01.062,551
2022-08-27T01:37:23,42.805,6.029,CST-1368DR,4598,5174,11980,01.060,551
2022-08-27T01:40:24,42.805,6.029,CST-1368DR,4598,5176,11984,01.059,551
2022-08-27T01:43:26,42.805,6.029,CST-1368DR,4598,5175,11982,01.060,551
2022-08-27T01:46:27,42.805,6.029,CST-1368DR,4598,5175,11982,01.060,551
2022-08-27T01:49:29,42.805,6.029,CST-1368DR,4598,5175,11984,01.059,551
2022-08-27T01:52:31,42.805,6.029,CST-1368DR,4598,5176,11985,01.059,551
2022-08-27T01:55:32,42.805,6.029,CST-1368DR,4598,5173,11978,01.061,551
2022-08-27T01:58:34,42.805,6.029,CST-1368DR,4598,5175,11983,01.059,551
2022-08-27T02:01:35,42.805,6.029,CST-1368DR,4598,5173,11978,01.061,551
2022-08-27T02:04:37,42.805,6.029,CST-1368DR,4598,5163,11956,01.068,551
2022-08-27T02:07:38,42.805,6.029,CST-1368DR,4598,5174,11981,01.060,551
2022-08-27T02:10:40,42.805,6.029,CST-1368DR,4598,5172,11975,01.062,551
2022-08-27T02:13:42,42.805,6.029,CST-1368DR,4598,5173,11978,01.061,551
2022-08-27T02:16:43,42.805,6.029,CST-1368DR,4598,5172,11976,01.062,551
2022-08-27T02:19:45,42.805,6.029,CST-1368DR,4598,5174,11981,01.060,551
2022-08-27T02:22:46,42.805,6.029,CST-1368DR,4598,5174,11980,01.060,551
2022-08-27T02:25:48,42.805,6.029,CST-1368DR,4598,5173,11978,01.061,551
2022-08-27T02:28:49,42.805,6.029,CST-1368DR,4598,5174,11980,01.060,551
2022-08-27T02:31:51,42.805,6.029,CST-1368DR,4598,5175,11982,01.060,551
2022-08-27T02:34:53,42.805,6.029,CST-1368DR,4598,5173,11977,01.061,551
2022-08-27T02:37:54,42.805,6.029,CST-1368DR,4598,5173,11977,01.061,551
2022-08-27T02:40:56,42.805,6.029,CST-1368DR,4598,5172,11977,01.061,551
2022-08-27T02:43:57,42.805,6.029,CST-1368DR,4598,5175,11982,01.060,551
2022-08-27T02:46:59,42.805,6.029,CST-1368DR,4598,5174,11981,01.060,551
2022-08-27T02:50:01,42.805,6.029,CST-1368DR,4598,5174,11981,01.060,551
2022-08-27T02:53:02,42.805,6.029,CST-1368DR,4598,5173,11977,01.061,550
2022-08-27T02:56:04,42.805,6.029,CST-1368DR,4598,5174,11981,01.060,551
2022-08-27T02:59:05,42.805,6.029,CST-1368DR,4598,5174,11980,01.060,551
2022-08-27T03:02:07,42.805,6.029,CST-1368DR,4598,5174,11980,01.060,551
2022-08-27T03:05:08,42.805,6.029,CST-1368DR,4598,5172,11977,01.061,551
2022-08-27T03:08:10,42.805,6.029,CST-1368DR,4598,5173,11978,01.061,551
2022-08-27T03:11:12,42.805,6.029,CST-1368DR,4598,5175,11983,01.059,551
2022-08-27T03:14:13,42.805,6.029,CST-1368DR,4598,5175,11982,01.060,551
2022-08-27T03:17:15,42.805,6.029,CST-1368DR,4598,5174,11980,01.060,551
2022-08-27T03:20:16,42.805,6.029,CST-1368DR,4598,5174,11981,01.060,551
2022-08-27T03:23:18,42.805,6.029,CST-1368DR,4598,5174,11980,01.060,551
2022-08-27T03:26:19,42.805,6.029,CST-1368DR,4598,5173,11978,01.061,551
2022-08-27T03:29:21,42.805,6.029,CST-1368DR,4598,5174,11980,01.060,551
2022-08-27T03:32:23,42.805,6.029,CST-1368DR,4598,5169,11970,01.064,551
2022-08-27T03:35:24,42.805,6.029,CST-1368DR,4598,5172,11976,01.062,551
2022-08-27T03:38:26,42.805,6.029,CST-1368DR,4598,5172,11977,01.061,551
2022-08-27T03:41:27,42.805,6.029,CST-1368DR,4598,5174,11981,01.060,551
2022-08-27T03:44:29,42.805,6.029,CST-1368DR,4598,5173,11978,01.061,551
2022-08-27T03:47:31,42.805,6.029,CST-1368DR,4598,5174,11980,01.060,551
2022-08-27T03:50:32,42.805,6.029,CST-1368DR,4598,5174,11980,01.060,551
2022-08-27T03:53:34,42.805,6.029,CST-1368DR,4598,5174,11981,01.060,551
2022-08-27T03:56:35,42.805,6.029,CST-1368DR,4598,5173,11978,01.061,551
2022-08-27T03:59:37,42.805,6.029,CST-1368DR,4598,5175,11982,01.060,551
2022-08-27T04:02:38,42.805,6.029,CST-1368DR,4598,5175,11983,01.059,551
2022-08-27T04:05:40,42.805,6.029,CST-1368DR,4598,5174,11980,01.060,551
2022-08-27T04:08:42,42.805,6.029,CST-1368DR,4598,5173,11978,01.061,551
2022-08-27T04:11:43,42.805,6.029,CST-1368DR,4598,5174,11981,01.060,551
2022-08-27T04:14:45,42.805,6.029,CST-1368DR,4598,5173,11978,01.061,551
2022-08-27T04:17:46,42.805,6.029,CST-1368DR,4598,5173,11977,01.061,551
2022-08-27T04:20:48,42.805,6.029,CST-1368DR,4598,5174,11980,01.060,551
2022-08-27T04:23:49,42.805,6.029,CST-1368DR,4598,5174,11980,01.060,551
2022-08-27T04:26:51,42.805,6.029,CST-1368DR,4598,5173,11978,01.061,551
2022-08-27T04:29:53,42.805,6.029,CST-1368DR,4598,5170,11971,01.063,551
2022-08-27T04:32:54,42.805,6.029,CST-1368DR,4598,5173,11978,01.061,550
2022-08-27T04:35:56,42.805,6.029,CST-1368DR,4598,5173,11978,01.061,551
2022-08-27T04:38:57,42.805,6.029,CST-1368DR,4598,5174,11981,01.060,551
2022-08-27T04:41:59,42.805,6.029,CST-1368DR,4598,5176,11984,01.059,551
2022-08-27T04:45:01,42.805,6.029,CST-1368DR,4598,5174,11980,01.060,551
2022-08-27T04:48:02,42.805,6.029,CST-1368DR,4598,5174,11981,01.060,551
2022-08-27T04:51:04,42.805,6.029,CST-1368DR,4598,5174,11981,01.060,551
2022-08-27T04:54:05,42.805,6.029,CST-1368DR,4598,5172,11975,01.062,551
2022-08-27T04:57:07,42.805,6.029,CST-1368DR,4598,5174,11981,01.060,551
2022-08-27T05:00:08,42.805,6.029,CST-1368DR,4598,5176,11984,01.059,551
2022-08-27T05:03:10,42.805,6.029,CST-1368DR,4598,5174,11980,01.060,551
2022-08-27T05:06:12,42.805,6.029,CST-1368DR,4598,5175,11982,01.060,551
2022-08-27T05:09:13,42.805,6.029,CST-1368DR,4598,5174,11981,01.060,551
2022-08-27T05:12:15,42.805,6.029,CST-1368DR,4598,5174,11980,01.060,551
2022-08-27T05:15:16,42.805,6.029,CST-1368DR,4598,5174,11981,01.060,551
2022-08-27T05:18:18,42.805,6.029,CST-1368DR,4598,5174,11981,01.060,551
2022-08-27T05:21:19,42.805,6.029,CST-1368DR,4598,5173,11978,01.061,551
2022-08-27T05:24:21,42.805,6.029,CST-1368DR,4598,5174,11980,01.060,551
2022-08-27T05:27:23,42.805,6.029,CST-1368DR,4598,5175,11984,01.059,551
2022-08-27T05:30:24,42.805,6.029,CST-1368DR,4598,5193,12025,01.045,551
2022-08-27T05:33:26,42.805,6.029,CST-1368DR,4598,5189,12015,01.049,551
2022-08-27T05:36:27,42.805,6.029,CST-1368DR,4598,5195,12029,01.044,551
2022-08-27T05:39:29,42.805,6.029,CST-1368DR,4598,5196,12031,01.043,551
2022-08-27T05:42:31,42.805,6.029,CST-1368DR,4598,5193,12024,01.046,551
2022-08-27T05:45:32,42.805,6.029,CST-1368DR,4598,5192,12022,01.046,551
2022-08-27T05:48:34,42.805,6.029,CST-1368DR,4598,5193,12024,01.046,551
2022-08-27T05:51:35,42.805,6.029,CST-1368DR,4598,5192,12023,01.046,551
2022-08-27T05:54:37,42.805,6.029,CST-1368DR,4598,5193,12025,01.045,551
2022-08-27T05:57:38,42.805,6.029,CST-1368DR,4598,5193,12024,01.046,551
2022-08-27T06:00:40,42.805,6.029,CST-1368DR,4598,5191,12019,01.047,551
2022-08-27T06:03:42,42.805,6.029,CST-1368DR,4598,5193,12025,01.045,551
2022-08-27T06:06:43,42.805,6.029,CST-1368DR,4598,5193,12024,01.046,551
2022-08-27T06:09:45,42.805,6.029,CST-1368DR,4598,5193,12024,01.046,551
2022-08-27T06:12:46,42.805,6.029,CST-1368DR,4598,5196,12031,01.043,551
2022-08-27T06:15:48,42.805,6.029,CST-1368DR,4598,5196,12031,01.043,551
2022-08-27T06:18:50,42.805,6.029,CST-1368DR,4598,5193,12025,01.045,551
2022-08-27T06:21:51,42.805,6.029,CST-1368DR,4598,5192,12022,01.046,551
2022-08-27T06:24:53,42.805,6.029,CST-1368DR,4598,5193,12025,01.045,551
2022-08-27T06:27:54,42.805,6.029,CST-1368DR,4598,5179,11992,01.056,551
2022-08-27T06:30:56,42.805,6.029,CST-1368DR,4598,5192,12023,01.046,551
2022-08-27T06:33:57,42.805,6.029,CST-1368DR,4598,5195,12028,01.044,551
2022-08-27T06:36:59,42.805,6.029,CST-1368DR,4598,5192,12023,01.046,551
2022-08-27T06:40:01,42.805,6.029,CST-1368DR,4598,5192,12022,01.046,551
2022-08-27T06:43:02,42.805,6.029,CST-1368DR,4598,5192,12022,01.046,551
2022-08-27T06:46:04,42.805,6.029,CST-1368DR,4598,5192,12022,01.046,551
2022-08-27T06:49:05,42.805,6.029,CST-1368DR,4598,5192,12022,01.046,551
2022-08-27T06:52:07,42.805,6.029,CST-1368DR,4598,5192,12021,01.047,551
2022-08-27T06:55:08,42.805,6.029,CST-1368DR,4598,5192,12023,01.046,551
2022-08-27T06:58:10,42.805,6.029,CST-1368DR,4598,5193,12025,01.045,551
2022-08-27T07:01:12,42.805,6.029,CST-1368DR,4598,5192,12022,01.046,551
2022-08-27T07:04:13,42.805,6.029,CST-1368DR,4598,5193,12024,01.046,551
2022-08-27T07:07:15,42.805,6.029,CST-1368DR,4598,5191,12021,01.047,551
2022-08-27T07:10:16,42.805,6.029,CST-1368DR,4598,5192,12023,01.046,551
2022-08-27T07:13:18,42.805,6.029,CST-1368DR,4597,5192,12024,01.046,551
2022-08-27T07:16:19,42.805,6.029,CST-1368DR,4598,5192,12021,01.047,551
2022-08-27T07:19:21,42.805,6.029,CST-1368DR,4598,5192,12022,01.046,551
2022-08-27T07:22:23,42.805,6.029,CST-1368DR,4598,5192,12023,01.046,551
2022-08-27T07:25:24,42.805,6.029,CST-1368DR,4598,5192,12023,01.046,551
2022-08-27T07:28:26,42.805,6.029,CST-1368DR,4598,5193,12024,01.046,551
2022-08-27T07:31:27,42.805,6.029,CST-1368DR,4597,5193,12026,01.045,551
2022-08-27T07:34:29,42.805,6.029,CST-1368DR,4598,5193,12025,01.045,551
2022-08-27T07:37:31,42.805,6.029,CST-1368DR,4597,5192,12024,01.046,551
2022-08-27T07:40:32,42.805,6.029,CST-1368DR,4598,5194,12026,01.045,551
2022-08-27T07:43:34,42.805,6.029,CST-1368DR,4598,5193,12024,01.046,551
2022-08-27T07:46:35,42.805,6.029,CST-1368DR,4598,5194,12026,01.045,551
2022-08-27T07:49:37,42.805,6.029,CST-1368DR,4597,5193,12026,01.045,551
2022-08-27T07:52:38,42.805,6.029,CST-1368DR,4598,5193,12025,01.045,551
2022-08-27T07:55:40,42.805,6.029,CST-1368DR,4598,5193,12025,01.045,551
2022-08-27T07:58:42,42.805,6.029,CST-1368DR,4598,5193,12025,01.045,551
2022-08-27T08:01:43,42.805,6.029,CST-1368DR,4597,5193,12027,01.045,551
2022-08-27T08:04:45,42.805,6.029,CST-1368DR,4598,5194,12027,01.045,551
2022-08-27T08:07:46,42.805,6.029,CST-1368DR,4597,5191,12023,01.046,551
2022-08-27T08:10:48,42.805,6.029,CST-1368DR,4598,5193,12024,01.046,551
2022-08-27T08:13:50,42.805,6.029,CST-1368DR,4597,5191,12023,01.046,551
2022-08-27T08:16:51,42.805,6.029,CST-1368DR,4597,5193,12026,01.045,551
2022-08-27T08:19:53,42.805,6.029,CST-1368DR,4598,5193,12024,01.046,551
2022-08-27T08:22:54,42.805,6.029,CST-1368DR,4598,5195,12028,01.044,551
2022-08-27T08:25:56,42.805,6.029,CST-1368DR,4598,5194,12026,01.045,551
2022-08-27T08:28:57,42.805,6.029,CST-1368DR,4597,5192,12025,01.045,551
2022-08-27T08:31:59,42.805,6.029,CST-1368DR,4597,5192,12024,01.046,551
2022-08-27T08:35:01,42.805,6.029,CST-1368DR,4598,5194,12027,01.045,551
2022-08-27T08:38:02,42.805,6.029,CST-1368DR,4598,5193,12025,01.045,551
2022-08-27T08:41:04,42.805,6.029,CST-1368DR,4597,5193,12028,01.044,551
2022-08-27T08:44:05,42.805,6.029,CST-1368DR,4598,5194,12027,01.045,551
2022-08-27T08:47:07,42.805,6.029,CST-1368DR,4597,5193,12027,01.045,551
2022-08-27T08:50:08,42.805,6.029,CST-1368DR,4597,5192,12026,01.045,551
2022-08-27T08:53:10,42.805,6.029,CST-1368DR,4597,5193,12026,01.045,551
2022-08-27T08:56:12,42.805,6.029,CST-1368DR,4597,5194,12029,01.044,551
2022-08-27T08:59:13,42.805,6.029,CST-1368DR,4597,5192,12024,01.046,551
2022-08-27T09:02:15,42.805,6.029,CST-1368DR,4597,5192,12026,01.045,551
2022-08-27T09:05:16,42.805,6.029,CST-1368DR,4597,5192,12026,01.045,551
2022-08-27T09:08:18,42.805,6.029,CST-1368DR,4597,5192,12024,01.046,551
2022-08-27T09:11:20,42.805,6.029,CST-1368DR,4597,5193,12027,01.045,551
2022-08-27T09:14:21,42.805,6.029,CST-1368DR,4597,5192,12025,01.045,551
2022-08-27T09:17:23,42.805,6.029,CST-1368DR,4597,5193,12027,01.045,551
2022-08-27T09:20:24,42.805,6.029,CST-1368DR,4597,5193,12028,01.044,551
2022-08-27T09:23:26,42.805,6.029,CST-1368DR,4597,5193,12027,01.045,551
2022-08-27T09:26:27,42.805,6.029,CST-1368DR,4597,5192,12025,01.045,551
2022-08-27T09:29:29,42.805,6.029,CST-1368DR,4597,5194,12029,01.044,551
2022-08-27T09:32:31,42.805,6.029,CST-1368DR,4597,5193,12026,01.045,551
2022-08-27T09:35:32,42.805,6.029,CST-1368DR,4597,5193,12027,01.045,551
2022-08-27T09:38:34,42.805,6.029,CST-1368DR,4597,5193,12027,01.045,551
2022-08-27T09:41:35,42.805,6.029,CST-1368DR,4597,5193,12027,01.045,551
2022-08-27T09:44:37,42.805,6.029,CST-1368DR,4597,5193,12026,01.045,551
2022-08-27T09:47:38,42.805,6.029,CST-1368DR,4597,5192,12024,01.046,551
2022-08-27T09:50:40,42.805,6.029,CST-1368DR,4597,5193,12026,01.045,551
2022-08-27T09:53:42,42.805,6.029,CST-1368DR,4597,5192,12026,01.045,551
2022-08-27T09:56:43,42.805,6.029,CST-1368DR,4597,5192,12024,01.046,551
2022-08-27T09:59:45,42.805,6.029,CST-1368DR,4597,5194,12030,01.044,551
2022-08-27T10:02:46,42.805,6.029,CST-1368DR,4597,5193,12026,01.045,551
2022-08-27T10:05:48,42.805,6.029,CST-1368DR,4597,5193,12027,01.045,551
2022-08-27T10:08:49,42.805,6.029,CST-1368DR,4597,5193,12026,01.045,551
2022-08-27T10:11:51,42.805,6.029,CST-1368DR,4597,5190,12021,01.047,551
2022-08-27T10:14:53,42.805,6.029,CST-1368DR,4597,5191,12023,01.046,551
2022-08-27T10:17:54,42.805,6.029,CST-1368DR,4597,5192,12025,01.045,551
2022-08-27T10:20:56,42.805,6.029,CST-1368DR,4597,5192,12025,01.045,551
2022-08-27T10:23:57,42.805,6.029,CST-1368DR,4597,5192,12024,01.046,551
2022-08-27T10:26:59,42.805,6.029,CST-1368DR,4597,5191,12022,01.046,551
2022-08-27T10:30:01,42.805,6.029,CST-1368DR,4597,5191,12022,01.046,551
2022-08-27T10:33:02,42.805,6.029,CST-1368DR,4597,5193,12027,01.045,551
2022-08-27T10:36:04,42.805,6.029,CST-1368DR,4597,5191,12023,01.046,551
2022-08-27T10:39:05,42.805,6.029,CST-1368DR,4597,5193,12027,01.045,551
2022-08-27T10:42:07,42.805,6.029,CST-1368DR,4597,5192,12024,01.046,551
2022-08-27T10:45:08,42.805,6.029,CST-1368DR,4597,5192,12026,01.045,551
2022-08-27T10:48:10,42.805,6.029,CST-1368DR,4597,5192,12024,01.046,551
2022-08-27T10:51:12,42.805,6.029,CST-1368DR,4597,5193,12027,01.045,551
2022-08-27T10:54:13,42.805,6.029,CST-1368DR,4597,5193,12027,01.045,551
2022-08-27T10:57:15,42.805,6.029,CST-1368DR,4597,5193,12027,01.045,551
2022-08-27T11:00:16,42.805,6.029,CST-1368DR,4597,5193,12028,01.044,551
2022-08-27T11:03:18,42.805,6.029,CST-1368DR,4597,5192,12026,01.045,551
2022-08-27T11:06:20,42.805,6.029,CST-1368DR,4597,5193,12027,01.045,551
2022-08-27T11:09:21,42.805,6.029,CST-1368DR,4597,5193,12027,01.045,551
2022-08-27T11:12:23,42.805,6.029,CST-1368DR,4597,5192,12025,01.045,551
2022-08-27T11:15:24,42.805,6.029,CST-1368DR,4597,5193,12028,01.044,551
2022-08-27T11:18:26,42.805,6.029,CST-1368DR,4597,5193,12027,01.045,551
2022-08-27T11:21:27,42.805,6.029,CST-1368DR,4597,5193,12026,01.045,551
2022-08-27T11:24:29,42.805,6.029,CST-1368DR,4597,5192,12024,01.046,551
2022-08-27T11:27:31,42.805,6.029,CST-1368DR,4597,5190,12020,01.047,551
2022-08-27T11:30:32,42.805,6.029,CST-1368DR,4597,5194,12029,01.044,551
2022-08-27T11:33:34,42.805,6.029,CST-1368DR,4597,5193,12027,01.045,551
2022-08-27T11:36:35,42.805,6.029,CST-1368DR,4597,5192,12026,01.045,551
2022-08-27T11:39:37,42.805,6.029,CST-1368DR,4597,5192,12025,01.045,551
2022-08-27T11:42:38,42.805,6.029,CST-1368DR,4597,5192,12026,01.045,550
2022-08-27T11:45:40,42.805,6.029,CST-1368DR,4597,5192,12024,01.046,551
2022-08-27T11:48:42,42.805,6.029,CST-1368DR,4597,5193,12027,01.045,551
2022-08-27T11:51:43,42.805,6.029,CST-1368DR,4597,5193,12027,01.045,551
2022-08-27T11:54:45,42.805,6.029,CST-1368DR,4597,5193,12027,01.045,551
2022-08-27T11:57:46,42.805,6.029,CST-1368DR,4597,5191,12023,01.046,551
2022-08-27T12:00:48,42.805,6.029,CST-1368DR,4597,5190,12021,01.047,551
2022-08-27T12:03:50,42.805,6.029,CST-1368DR,4597,5194,12029,01.044,551
2022-08-27T12:06:51,42.805,6.029,CST-1368DR,4597,5195,12031,01.043,551
2022-08-27T12:09:53,42.805,6.029,CST-1368DR,4597,5193,12027,01.045,551
2022-08-27T12:12:54,42.805,6.029,CST-1368DR,4597,5194,12030,01.044,551
2022-08-27T12:15:56,42.805,6.029,CST-1368DR,4597,5194,12030,01.044,551
2022-08-27T12:18:57,42.805,6.029,CST-1368DR,4597,5193,12027,01.045,551
2022-08-27T12:21:59,42.805,6.029,CST-1368DR,4597,5195,12031,01.043,551
2022-08-27T12:25:01,42.805,6.029,CST-1368DR,4597,5193,12027,01.045,551
2022-08-27T12:28:02,42.805,6.029,CST-1368DR,4597,5194,12030,01.044,551
2022-08-27T12:31:04,42.805,6.029,CST-1368DR,4597,5194,12030,01.044,551
2022-08-27T12:34:05,42.805,6.029,CST-1368DR,4597,5194,12030,01.044,551
2022-08-27T12:37:07,42.805,6.029,CST-1368DR,4597,5193,12027,01.045,551
2022-08-27T12:40:08,42.805,6.029,CST-1368DR,4597,5193,12028,01.044,551
2022-08-27T12:43:10,42.805,6.029,CST-1368DR,4597,5194,12030,01.044,551
2022-08-27T12:46:12,42.805,6.029,CST-1368DR,4597,5194,12030,01.044,550
2022-08-27T12:49:13,42.805,6.029,CST-1368DR,4597,5194,12030,01.044,551
2022-08-27T12:52:15,42.805,6.029,CST-1368DR,4597,5194,12029,01.044,551
2022-08-27T12:55:16,42.805,6.029,CST-1368DR,4597,5193,12027,01.045,551
2022-08-27T12:58:18,42.805,6.029,CST-1368DR,4597,5191,12023,01.046,551
2022-08-27T13:01:19,42.805,6.029,CST-1368DR,4597,5194,12030,01.044,551
2022-08-27T13:04:21,42.805,6.029,CST-1368DR,4597,5192,12024,01.046,551
2022-08-27T13:07:23,42.805,6.029,CST-1368DR,4597,5193,12027,01.045,551
2022-08-27T13:10:24,42.805,6.029,CST-1368DR,4597,5191,12023,01.046,551
2022-08-27T13:13:26,42.805,6.029,CST-1368DR,4597,5193,12028,01.044,551
2022-08-27T13:16:27,42.805,6.029,CST-1368DR,4597,5192,12024,01.046,551
2022-08-27T13:19:29,42.805,6.029,CST-1368DR,4597,5193,12028,01.044,551
2022-08-27T13:22:31,42.805,6.029,CST-1368DR,4597,5191,12023,01.046,551
2022-08-27T13:25:32,42.805,6.029,CST-1368DR,4597,5192,12026,01.045,551
2022-08-27T13:28:34,42.805,6.029,CST-1368DR,4597,5194,12029,01.044,551
2022-08-27T13:31:35,42.805,6.029,CST-1368DR,4597,5193,12027,01.045,551
2022-08-27T13:34:37,42.805,6.029,CST-1368DR,4597,5193,12028,01.044,551
2022-08-27T13:37:38,42.805,6.029,CST-1368DR,4597,5192,12025,01.045,551
2022-08-27T13:40:40,42.805,6.029,CST-1368DR,4597,5193,12028,01.044,551
2022-08-27T13:43:42,42.805,6.029,CST-1368DR,4597,5192,12025,01.045,551
2022-08-27T13:46:43,42.805,6.029,CST-1368DR,4597,5193,12027,01.045,551
2022-08-27T13:49:45,42.805,6.029,CST-1368DR,4597,5193,12027,01.045,551
2022-08-27T13:52:46,42.805,6.029,CST-1368DR,4597,5193,12027,01.045,551
2022-08-27T13:55:48,42.805,6.029,CST-1368DR,4597,5193,12027,01.045,551
2022-08-27T13:58:49,42.805,6.029,CST-1368DR,4597,5193,12026,01.045,551
2022-08-27T14:01:51,42.805,6.029,CST-1368DR,4597,5193,12027,01.045,551
2022-08-27T14:04:53,42.805,6.029,CST-1368DR,4597,5193,12027,01.045,551
2022-08-27T14:07:54,42.805,6.029,CST-1368DR,4597,5192,12025,01.045,551
2022-08-27T14:10:56,42.805,6.029,CST-1368DR,4597,5194,12030,01.044,551
2022-08-27T14:13:57,42.805,6.029,CST-1368DR,4597,5193,12027,01.045,551
2022-08-27T14:16:59,42.805,6.029,CST-1368DR,4597,5193,12028,01.044,551
2022-08-27T14:20:01,42.805,6.029,CST-1368DR,4597,5194,12029,01.044,551
2022-08-27T14:23:02,42.805,6.029,CST-1368DR,4597,5193,12027,01.045,551
2022-08-27T14:26:04,42.805,6.029,CST-1368DR,4597,5192,12026,01.045,551
2022-08-27T14:29:05,42.805,6.029,CST-1368DR,4597,5193,12027,01.045,551
2022-08-27T14:32:07,42.805,6.029,CST-1368DR,4597,5192,12024,01.046,551
2022-08-27T14:35:08,42.805,6.029,CST-1368DR,4597,5191,12023,01.046,551
2022-08-27T14:38:10,42.805,6.029,CST-1368DR,4597,5190,12021,01.047,551
2022-08-27T14:41:12,42.805,6.029,CST-1368DR,4597,5192,12024,01.046,551
2022-08-27T14:44:13,42.805,6.029,CST-1368DR,4597,5192,12026,01.045,551
2022-08-27T14:47:15,42.805,6.029,CST-1368DR,4597,5193,12027,01.045,551
2022-08-27T14:50:16,42.805,6.029,CST-1368DR,4597,5193,12027,01.045,551
2022-08-27T14:53:18,42.805,6.029,CST-1368DR,4597,5193,12027,01.045,551
2022-08-27T14:56:20,42.805,6.029,CST-1368DR,4597,5193,12026,01.045,551
2022-08-27T14:59:21,42.805,6.029,CST-1368DR,4597,5194,12029,01.044,551
2022-08-27T15:02:23,42.805,6.029,CST-1368DR,4597,5193,12027,01.045,551
2022-08-27T15:05:24,42.805,6.029,CST-1368DR,4597,5193,12027,01.045,551
2022-08-27T15:08:26,42.805,6.029,CST-1368DR,4597,5194,12030,01.044,551
2022-08-27T15:11:27,42.805,6.029,CST-1368DR,4597,5194,12029,01.044,551
2022-08-27T15:14:29,42.805,6.029,CST-1368DR,4597,5193,12028,01.044,551
2022-08-27T15:17:31,42.805,6.029,CST-1368DR,4597,5193,12027,01.045,551
2022-08-27T15:20:32,42.805,6.029,CST-1368DR,4597,5192,12026,01.045,551
2022-08-27T15:23:34,42.805,6.029,CST-1368DR,4597,5192,12024,01.046,551
2022-08-27T15:26:35,42.805,6.029,CST-1368DR,4597,5191,12023,01.046,551
2022-08-27T15:29:37,42.805,6.029,CST-1368DR,4597,5192,12024,01.046,551
2022-08-27T15:32:38,42.805,6.029,CST-1368DR,4597,5192,12024,01.046,551
2022-08-27T15:35:40,42.805,6.029,CST-1368DR,4597,5193,12027,01.045,551
2022-08-27T15:38:42,42.805,6.029,CST-1368DR,4597,5192,12024,01.046,551
2022-08-27T15:41:43,42.805,6.029,CST-1368DR,4597,5191,12021,01.047,551
2022-08-27T15:44:45,42.805,6.029,CST-1368DR,4597,5193,12026,01.045,551
2022-08-27T15:47:46,42.805,6.029,CST-1368DR,4597,5190,12019,01.047,551
2022-08-27T15:50:48,42.805,6.029,CST-1368DR,4597,5191,12023,01.046,551
2022-08-27T15:53:50,42.805,6.029,CST-1368DR,4597,5193,12027,01.045,551
2022-08-27T15:56:51,42.805,6.029,CST-1368DR,4597,5191,12023,01.046,551
2022-08-27T15:59:53,42.805,6.029,CST-1368DR,4597,5192,12026,01.045,551
2022-08-27T16:02:54,42.805,6.029,CST-1368DR,4597,5192,12024,01.046,551
2022-08-27T16:05:56,42.805,6.029,CST-1368DR,4597,5194,12030,01.044,551
2022-08-27T16:08:57,42.805,6.029,CST-1368DR,4597,5193,12027,01.045,551
2022-08-27T16:11:59,42.805,6.029,CST-1368DR,4597,5192,12025,01.045,551
2022-08-27T16:15:01,42.805,6.029,CST-1368DR,4597,5195,12031,01.043,551
2022-08-27T16:18:02,42.805,6.029,CST-1368DR,4597,5179,11995,01.055,551
2022-08-27T16:21:04,42.805,6.029,CST-1368DR,4597,5180,11998,01.054,551
2022-08-27T16:24:05,42.805,6.029,CST-1368DR,4597,5180,11996,01.055,551
2022-08-27T16:27:07,42.805,6.029,CST-1368DR,4597,5179,11994,01.056,551
2022-08-27T16:30:08,42.805,6.029,CST-1368DR,4597,5179,11995,01.055,551
2022-08-27T16:33:10,42.805,6.029,CST-1368DR,4597,5179,11994,01.056,551
2022-08-27T16:36:12,42.805,6.029,CST-1368DR,4597,5178,11992,01.056,551